Time,TemperatureF,DewpointF,PressureIn,WindDirection,WindDirectionDegrees,WindSpeedMPH,WindSpeedGustMPH,Humidity,HourlyPrecipIn,Conditions,Clouds,dailyrainin,SoftwareType,DateUTC
2013-03-20 00:02:00,64.0,17.0,30.14,North,-999,-999.0,-999.0,16,-99.99,,,-99.99,,2013-03-20 06:02:00,
2013-03-20 00:12:00,64.0,17.0,30.14,North,-999,-999.0,-999.0,16,-99.99,,,-99.99,,2013-03-20 06:12:00,
2013-03-20 00:22:00,63.0,18.0,30.15,North,-999,-999.0,-999.0,17,-99.99,,,-99.99,,2013-03-20 06:22:00,
2013-03-20 00:32:00,63.0,18.0,30.15,North,-999,-999.0,-999.0,17,-99.99,,,-99.99,,2013-03-20 06:32:00,
2013-03-20 00:42:00,63.0,19.0,30.16,North,-999,-999.0,-999.0,18,-99.99,,,-99.99,,2013-03-20 06:42:00,
2013-03-20 00:53:00,62.0,19.0,30.16,North,-999,-999.0,-999.0,18,-99.99,,,-99.99,,2013-03-20 06:53:00,
2013-03-20 01:02:00,62.0,20.0,30.17,North,-999,-999.0,-999.0,19,-99.99,,,-99.99,,2013-03-20 07:02:00,
2013-03-20 01:12:00,62.0,20.0,30.17,North,-999,-999.0,-999.0,19,-99.99,,,-99.99,,2013-03-20 07:12:00,
2013-03-20 01:22:00,61.0,20.0,30.17,North,-999,-999.0,-999.0,20,-99.99,,,-99.99,,2013-03-20 07:22:00,
2013-03-20 01:32:00,60.0,19.0,30.17,North,-999,-999.0,-999.0,20,-99.99,,,-99.99,,2013-03-20 07:32:00,
2013-03-20 01:42:00,60.0,19.0,30.17,North,-999,-999.0,-999.0,20,-99.99,,,-99.99,,2013-03-20 07:42:00,
2013-03-20 01:52:00,60.0,19.0,30.17,North,-999,-999.0,-999.0,20,-99.99,,,-99.99,,2013-03-20 07:52:00,
2013-03-20 02:02:00,60.0,18.0,30.17,North,-999,-999.0,-999.0,20,-99.99,,,-99.99,,2013-03-20 08:02:00,
2013-03-20 02:12:00,60.0,18.0,30.17,North,-999,-999.0,-999.0,20,-99.99,,,-99.99,,2013-03-20 08:12:00,
2013-03-20 02:22:00,60.0,19.0,30.18,North,-999,-999.0,-999.0,20,-99.99,,,-99.99,,2013-03-20 08:22:00,
2013-03-20 02:32:00,59.0,19.0,30.18,North,-999,-999.0,-999.0,20,-99.99,,,-99.99,,2013-03-20 08:32:00,
2013-03-20 02:42:00,59.0,19.0,30.18,North,-999,-999.0,-999.0,20,-99.99,,,-99.99,,2013-03-20 08:42:00,
2013-03-20 02:52:00,59.0,19.0,30.19,North,-999,-999.0,-999.0,21,-99.99,,,-99.99,,2013-03-20 08:52:00,
2013-03-20 03:02:00,58.0,19.0,30.19,North,-999,-999.0,-999.0,21,-99.99,,,-99.99,,2013-03-20 09:02:00,
2013-03-20 03:12:00,58.0,19.0,30.19,North,-999,-999.0,-999.0,21,-99.99,,,-99.99,,2013-03-20 09:12:00,
2013-03-20 03:22:00,57.0,21.0,30.20,North,-999,-999.0,-999.0,24,-99.99,,,-99.99,,2013-03-20 09:22:00,
2013-03-20 03:32:00,56.0,23.0,30.19,North,-999,-999.0,-999.0,26,-99.99,,,-99.99,,2013-03-20 09:32:00,
2013-03-20 03:43:00,56.0,23.0,30.19,North,-999,-999.0,-999.0,26,-99.99,,,-99.99,,2013-03-20 09:43:00,
2013-03-20 03:53:00,56.0,24.0,30.19,North,-999,-999.0,-999.0,29,-99.99,,,-99.99,,2013-03-20 09:53:00,
2013-03-20 04:03:00,55.0,26.0,30.19,North,-999,-999.0,-999.0,32,-99.99,,,-99.99,,2013-03-20 10:03:00,
2013-03-20 04:12:00,55.0,26.0,30.19,North,-999,-999.0,-999.0,32,-99.99,,,-99.99,,2013-03-20 10:12:00,
2013-03-20 04:23:00,55.0,27.0,30.19,North,-999,-999.0,-999.0,34,-99.99,,,-99.99,,2013-03-20 10:23:00,
2013-03-20 04:32:00,54.0,28.0,30.18,North,-999,-999.0,-999.0,37,-99.99,,,-99.99,,2013-03-20 10:32:00,
2013-03-20 04:42:00,54.0,28.0,30.18,North,-999,-999.0,-999.0,37,-99.99,,,-99.99,,2013-03-20 10:42:00,
2013-03-20 04:53:00,54.0,29.0,30.19,North,-999,-999.0,-999.0,38,-99.99,,,-99.99,,2013-03-20 10:53:00,
2013-03-20 05:03:00,54.0,29.0,30.19,North,-999,-999.0,-999.0,38,-99.99,,,-99.99,,2013-03-20 11:03:00,
2013-03-20 05:12:00,54.0,29.0,30.19,North,-999,-999.0,-999.0,38,-99.99,,,-99.99,,2013-03-20 11:12:00,
2013-03-20 05:22:00,53.0,27.0,30.20,North,-999,-999.0,-999.0,37,-99.99,,,-99.99,,2013-03-20 11:22:00,
2013-03-20 05:32:00,53.0,28.0,30.20,North,-999,-999.0,-999.0,38,-99.99,,,-99.99,,2013-03-20 11:32:00,
2013-03-20 05:42:00,53.0,28.0,30.20,North,-999,-999.0,-999.0,38,-99.99,,,-99.99,,2013-03-20 11:42:00,
2013-03-20 05:52:00,53.0,29.0,30.21,North,-999,-999.0,-999.0,39,-99.99,,,-99.99,,2013-03-20 11:52:00,
2013-03-20 06:02:00,53.0,31.0,30.22,North,-999,-999.0,-999.0,42,-99.99,,,-99.99,,2013-03-20 12:02:00,
2013-03-20 06:12:00,53.0,31.0,30.22,North,-999,-999.0,-999.0,42,-99.99,,,-99.99,,2013-03-20 12:12:00,
2013-03-20 06:22:00,52.0,31.0,30.22,North,-999,-999.0,-999.0,43,-99.99,,,-99.99,,2013-03-20 12:22:00,
2013-03-20 06:32:00,52.0,30.0,30.23,North,-999,-999.0,-999.0,43,-99.99,,,-99.99,,2013-03-20 12:32:00,
2013-03-20 06:42:00,52.0,30.0,30.23,North,-999,-999.0,-999.0,43,-99.99,,,-99.99,,2013-03-20 12:42:00,
2013-03-20 06:52:00,52.0,30.0,30.23,North,-999,-999.0,-999.0,43,-99.99,,,-99.99,,2013-03-20 12:52:00,
2013-03-20 07:03:00,51.0,31.0,30.24,North,-999,-999.0,-999.0,45,-99.99,,,-99.99,,2013-03-20 13:03:00,
2013-03-20 07:12:00,51.0,31.0,30.24,North,-999,-999.0,-999.0,45,-99.99,,,-99.99,,2013-03-20 13:12:00,
2013-03-20 07:22:00,51.0,31.0,30.24,North,-999,-999.0,-999.0,46,-99.99,,,-99.99,,2013-03-20 13:22:00,
2013-03-20 07:32:00,51.0,30.0,30.25,North,-999,-999.0,-999.0,44,-99.99,,,-99.99,,2013-03-20 13:32:00,
2013-03-20 07:42:00,51.0,30.0,30.25,North,-999,-999.0,-999.0,44,-99.99,,,-99.99,,2013-03-20 13:42:00,
2013-03-20 07:53:00,51.0,30.0,30.25,North,-999,-999.0,-999.0,44,-99.99,,,-99.99,,2013-03-20 13:53:00,
2013-03-20 08:02:00,51.0,29.0,30.25,North,-999,-999.0,-999.0,42,-99.99,,,-99.99,,2013-03-20 14:02:00,
2013-03-20 08:12:00,51.0,29.0,30.25,North,-999,-999.0,-999.0,42,-99.99,,,-99.99,,2013-03-20 14:12:00,
2013-03-20 08:23:00,52.0,29.0,30.26,North,-999,-999.0,-999.0,41,-99.99,,,-99.99,,2013-03-20 14:23:00,
2013-03-20 08:33:00,52.0,29.0,30.26,North,-999,-999.0,-999.0,41,-99.99,,,-99.99,,2013-03-20 14:33:00,
2013-03-20 08:42:00,52.0,29.0,30.26,North,-999,-999.0,-999.0,41,-99.99,,,-99.99,,2013-03-20 14:42:00,
2013-03-20 08:52:00,52.0,29.0,30.27,North,-999,-999.0,-999.0,40,-99.99,,,-99.99,,2013-03-20 14:52:00,
2013-03-20 09:02:00,52.0,29.0,30.27,North,-999,-999.0,-999.0,40,-99.99,,,-99.99,,2013-03-20 15:02:00,
2013-03-20 09:12:00,52.0,29.0,30.27,North,-999,-999.0,-999.0,40,-99.99,,,-99.99,,2013-03-20 15:12:00,
2013-03-20 09:22:00,53.0,29.0,30.27,North,-999,-999.0,-999.0,40,-99.99,,,-99.99,,2013-03-20 15:22:00,
2013-03-20 09:33:00,53.0,29.0,30.28,North,-999,-999.0,-999.0,38,-99.99,,,-99.99,,2013-03-20 15:33:00,
2013-03-20 09:43:00,53.0,29.0,30.28,North,-999,-999.0,-999.0,38,-99.99,,,-99.99,,2013-03-20 15:43:00,
2013-03-20 09:53:00,54.0,29.0,30.28,North,-999,-999.0,-999.0,38,-99.99,,,-99.99,,2013-03-20 15:53:00,
2013-03-20 10:03:00,54.0,33.0,30.27,North,-999,-999.0,-999.0,44,-99.99,,,-99.99,,2013-03-20 16:03:00,
2013-03-20 10:12:00,54.0,33.0,30.27,North,-999,-999.0,-999.0,44,-99.99,,,-99.99,,2013-03-20 16:12:00,
2013-03-20 10:23:00,54.0,33.0,30.27,North,-999,-999.0,-999.0,43,-99.99,,,-99.99,,2013-03-20 16:23:00,
2013-03-20 10:32:00,55.0,33.0,30.28,North,-999,-999.0,-999.0,42,-99.99,,,-99.99,,2013-03-20 16:32:00,
2013-03-20 10:42:00,55.0,33.0,30.28,North,-999,-999.0,-999.0,42,-99.99,,,-99.99,,2013-03-20 16:42:00,
2013-03-20 10:53:00,57.0,32.0,30.26,North,-999,-999.0,-999.0,38,-99.99,,,-99.99,,2013-03-20 16:53:00,
2013-03-20 11:03:00,56.0,31.0,30.26,North,-999,-999.0,-999.0,38,-99.99,,,-99.99,,2013-03-20 17:03:00,
2013-03-20 11:12:00,56.0,31.0,30.26,North,-999,-999.0,-999.0,38,-99.99,,,-99.99,,2013-03-20 17:12:00,
2013-03-20 11:22:00,58.0,31.0,30.26,North,-999,-999.0,-999.0,36,-99.99,,,-99.99,,2013-03-20 17:22:00,
2013-03-20 11:32:00,58.0,31.0,30.25,North,-999,-999.0,-999.0,34,-99.99,,,-99.99,,2013-03-20 17:32:00,
2013-03-20 11:42:00,58.0,31.0,30.25,North,-999,-999.0,-999.0,34,-99.99,,,-99.99,,2013-03-20 17:42:00,
2013-03-20 11:53:00,59.0,30.0,30.25,North,-999,-999.0,-999.0,33,-99.99,,,-99.99,,2013-03-20 17:53:00,
2013-03-20 12:02:00,60.0,31.0,30.24,North,-999,-999.0,-999.0,33,-99.99,,,-99.99,,2013-03-20 18:02:00,
2013-03-20 12:12:00,60.0,31.0,30.24,North,-999,-999.0,-999.0,33,-99.99,,,-99.99,,2013-03-20 18:12:00,
2013-03-20 12:22:00,60.0,31.0,30.23,North,-999,-999.0,-999.0,33,-99.99,,,-99.99,,2013-03-20 18:22:00,
2013-03-20 12:33:00,61.0,32.0,30.23,North,-999,-999.0,-999.0,32,-99.99,,,-99.99,,2013-03-20 18:33:00,
2013-03-20 12:42:00,61.0,32.0,30.23,North,-999,-999.0,-999.0,32,-99.99,,,-99.99,,2013-03-20 18:42:00,
2013-03-20 12:53:00,63.0,32.0,30.22,North,-999,-999.0,-999.0,31,-99.99,,,-99.99,,2013-03-20 18:53:00,
2013-03-20 13:02:00,64.0,31.0,30.20,North,-999,-999.0,-999.0,29,-99.99,,,-99.99,,2013-03-20 19:02:00,
2013-03-20 13:12:00,64.0,31.0,30.20,North,-999,-999.0,-999.0,29,-99.99,,,-99.99,,2013-03-20 19:12:00,
2013-03-20 13:22:00,64.0,30.0,30.20,North,-999,-999.0,-999.0,27,-99.99,,,-99.99,,2013-03-20 19:22:00,
2013-03-20 13:32:00,65.0,30.0,30.18,North,-999,-999.0,-999.0,26,-99.99,,,-99.99,,2013-03-20 19:32:00,
2013-03-20 13:42:00,65.0,30.0,30.18,North,-999,-999.0,-999.0,26,-99.99,,,-99.99,,2013-03-20 19:42:00,
2013-03-20 13:53:00,65.0,30.0,30.17,North,-999,-999.0,-999.0,26,-99.99,,,-99.99,,2013-03-20 19:53:00,
2013-03-20 14:02:00,65.0,28.0,30.15,North,-999,-999.0,-999.0,24,-99.99,,,-99.99,,2013-03-20 20:02:00,
2013-03-20 14:13:00,65.0,28.0,30.15,North,-999,-999.0,-999.0,24,-99.99,,,-99.99,,2013-03-20 20:13:00,
2013-03-20 14:22:00,67.0,28.0,30.14,North,-999,-999.0,-999.0,23,-99.99,,,-99.99,,2013-03-20 20:22:00,
2013-03-20 14:32:00,67.0,28.0,30.13,North,-999,-999.0,-999.0,23,-99.99,,,-99.99,,2013-03-20 20:32:00,
2013-03-20 14:42:00,67.0,28.0,30.13,North,-999,-999.0,-999.0,23,-99.99,,,-99.99,,2013-03-20 20:42:00,
2013-03-20 14:53:00,67.0,28.0,30.12,North,-999,-999.0,-999.0,22,-99.99,,,-99.99,,2013-03-20 20:53:00,
2013-03-20 15:02:00,68.0,27.0,30.11,North,-999,-999.0,-999.0,21,-99.99,,,-99.99,,2013-03-20 21:02:00,
2013-03-20 15:12:00,68.0,27.0,30.11,North,-999,-999.0,-999.0,21,-99.99,,,-99.99,,2013-03-20 21:12:00,
2013-03-20 15:22:00,68.0,27.0,30.09,North,-999,-999.0,-999.0,21,-99.99,,,-99.99,,2013-03-20 21:22:00,
2013-03-20 15:33:00,68.0,27.0,30.08,North,-999,-999.0,-999.0,21,-99.99,,,-99.99,,2013-03-20 21:33:00,
2013-03-20 15:42:00,68.0,27.0,30.08,North,-999,-999.0,-999.0,21,-99.99,,,-99.99,,2013-03-20 21:42:00,
2013-03-20 15:53:00,69.0,28.0,30.07,North,-999,-999.0,-999.0,21,-99.99,,,-99.99,,2013-03-20 21:53:00,
2013-03-20 16:03:00,69.0,27.0,30.06,North,-999,-999.0,-999.0,20,-99.99,,,-99.99,,2013-03-20 22:03:00,
2013-03-20 16:12:00,69.0,27.0,30.06,North,-999,-999.0,-999.0,20,-99.99,,,-99.99,,2013-03-20 22:12:00,
2013-03-20 16:23:00,69.0,27.0,30.06,North,-999,-999.0,-999.0,21,-99.99,,,-99.99,,2013-03-20 22:23:00,
2013-03-20 16:32:00,69.0,27.0,30.04,North,-999,-999.0,-999.0,20,-99.99,,,-99.99,,2013-03-20 22:32:00,
2013-03-20 16:42:00,69.0,27.0,30.04,North,-999,-999.0,-999.0,20,-99.99,,,-99.99,,2013-03-20 22:42:00,
2013-03-20 16:52:00,69.0,28.0,30.04,North,-999,-999.0,-999.0,20,-99.99,,,-99.99,,2013-03-20 22:52:00,
2013-03-20 17:02:00,70.0,27.0,30.03,North,-999,-999.0,-999.0,20,-99.99,,,-99.99,,2013-03-20 23:02:00,
2013-03-20 17:12:00,70.0,27.0,30.03,North,-999,-999.0,-999.0,20,-99.99,,,-99.99,,2013-03-20 23:12:00,
2013-03-20 17:22:00,70.0,27.0,30.03,North,-999,-999.0,-999.0,20,-99.99,,,-99.99,,2013-03-20 23:22:00,
2013-03-20 17:32:00,70.0,28.0,30.02,North,-999,-999.0,-999.0,20,-99.99,,,-99.99,,2013-03-20 23:32:00,
2013-03-20 17:42:00,70.0,28.0,30.02,North,-999,-999.0,-999.0,20,-99.99,,,-99.99,,2013-03-20 23:42:00,
2013-03-20 17:53:00,70.0,27.0,30.02,North,-999,-999.0,-999.0,19,-99.99,,,-99.99,,2013-03-20 23:53:00,
2013-03-20 18:02:00,70.0,27.0,30.02,North,-999,-999.0,-999.0,19,-99.99,,,-99.99,,2013-03-21 00:02:00,
2013-03-20 18:12:00,70.0,27.0,30.02,North,-999,-999.0,-999.0,19,-99.99,,,-99.99,,2013-03-21 00:12:00,
2013-03-20 18:23:00,70.0,27.0,30.02,North,-999,-999.0,-999.0,19,-99.99,,,-99.99,,2013-03-21 00:23:00,
2013-03-20 18:32:00,70.0,27.0,30.01,North,-999,-999.0,-999.0,19,-99.99,,,-99.99,,2013-03-21 00:32:00,
2013-03-20 18:42:00,70.0,27.0,30.01,North,-999,-999.0,-999.0,19,-99.99,,,-99.99,,2013-03-21 00:42:00,
2013-03-20 18:52:00,70.0,27.0,30.01,North,-999,-999.0,-999.0,19,-99.99,,,-99.99,,2013-03-21 00:52:00,
2013-03-20 19:02:00,70.0,27.0,30.01,North,-999,-999.0,-999.0,19,-99.99,,,-99.99,,2013-03-21 01:02:00,
2013-03-20 19:12:00,70.0,27.0,30.01,North,-999,-999.0,-999.0,19,-99.99,,,-99.99,,2013-03-21 01:12:00,
2013-03-20 19:22:00,69.0,26.0,30.01,North,-999,-999.0,-999.0,19,-99.99,,,-99.99,,2013-03-21 01:22:00,
2013-03-20 19:32:00,69.0,26.0,30.00,North,-999,-999.0,-999.0,19,-99.99,,,-99.99,,2013-03-21 01:32:00,
2013-03-20 19:42:00,69.0,26.0,30.00,North,-999,-999.0,-999.0,19,-99.99,,,-99.99,,2013-03-21 01:42:00,
2013-03-20 19:53:00,69.0,26.0,30.01,North,-999,-999.0,-999.0,20,-99.99,,,-99.99,,2013-03-21 01:53:00,
2013-03-20 20:02:00,69.0,27.0,30.00,North,-999,-999.0,-999.0,20,-99.99,,,-99.99,,2013-03-21 02:02:00,
2013-03-20 20:12:00,69.0,27.0,30.00,North,-999,-999.0,-999.0,20,-99.99,,,-99.99,,2013-03-21 02:12:00,
2013-03-20 20:22:00,69.0,27.0,29.99,North,-999,-999.0,-999.0,20,-99.99,,,-99.99,,2013-03-21 02:22:00,
2013-03-20 20:32:00,69.0,27.0,29.99,North,-999,-999.0,-999.0,21,-99.99,,,-99.99,,2013-03-21 02:32:00,
2013-03-20 20:42:00,69.0,27.0,29.99,North,-999,-999.0,-999.0,21,-99.99,,,-99.99,,2013-03-21 02:42:00,
2013-03-20 20:52:00,69.0,27.0,29.99,North,-999,-999.0,-999.0,21,-99.99,,,-99.99,,2013-03-21 02:52:00,
2013-03-20 21:02:00,68.0,28.0,29.99,North,-999,-999.0,-999.0,22,-99.99,,,-99.99,,2013-03-21 03:02:00,
2013-03-20 21:12:00,68.0,28.0,29.99,North,-999,-999.0,-999.0,22,-99.99,,,-99.99,,2013-03-21 03:12:00,
2013-03-20 21:22:00,68.0,29.0,29.98,North,-999,-999.0,-999.0,23,-99.99,,,-99.99,,2013-03-21 03:22:00,
2013-03-20 21:33:00,68.0,29.0,29.97,North,-999,-999.0,-999.0,23,-99.99,,,-99.99,,2013-03-21 03:33:00,
2013-03-20 21:43:00,68.0,29.0,29.97,North,-999,-999.0,-999.0,23,-99.99,,,-99.99,,2013-03-21 03:43:00,
2013-03-20 21:53:00,68.0,29.0,29.98,North,-999,-999.0,-999.0,23,-99.99,,,-99.99,,2013-03-21 03:53:00,
2013-03-20 22:03:00,68.0,29.0,29.98,North,-999,-999.0,-999.0,23,-99.99,,,-99.99,,2013-03-21 04:03:00,
2013-03-20 22:13:00,68.0,29.0,29.98,North,-999,-999.0,-999.0,23,-99.99,,,-99.99,,2013-03-21 04:13:00,
2013-03-20 22:23:00,68.0,29.0,29.98,North,-999,-999.0,-999.0,23,-99.99,,,-99.99,,2013-03-21 04:23:00,
2013-03-20 22:33:00,68.0,30.0,29.99,North,-999,-999.0,-999.0,24,-99.99,,,-99.99,,2013-03-21 04:33:00,
2013-03-20 22:43:00,68.0,30.0,29.99,North,-999,-999.0,-999.0,24,-99.99,,,-99.99,,2013-03-21 04:43:00,
2013-03-20 22:53:00,67.0,30.0,29.98,North,-999,-999.0,-999.0,24,-99.99,,,-99.99,,2013-03-21 04:53:00,
2013-03-20 23:02:00,67.0,30.0,29.98,North,-999,-999.0,-999.0,24,-99.99,,,-99.99,,2013-03-21 05:02:00,
2013-03-20 23:12:00,67.0,30.0,29.98,North,-999,-999.0,-999.0,24,-99.99,,,-99.99,,2013-03-21 05:12:00,
2013-03-20 23:22:00,67.0,30.0,29.98,North,-999,-999.0,-999.0,25,-99.99,,,-99.99,,2013-03-21 05:22:00,
2013-03-20 23:32:00,67.0,30.0,29.97,North,-999,-999.0,-999.0,25,-99.99,,,-99.99,,2013-03-21 05:32:00,
2013-03-20 23:43:00,67.0,30.0,29.97,North,-999,-999.0,-999.0,25,-99.99,,,-99.99,,2013-03-21 05:43:00,
2013-03-20 23:52:00,67.0,30.0,29.97,North,-999,-999.0,-999.0,25,-99.99,,,-99.99,,2013-03-21 05:52:00,